Time,TemperatureF,DewpointF,PressureIn,WindDirection,WindDirectionDegrees,WindSpeedMPH,WindSpeedGustMPH,Humidity,HourlyPrecipIn,Conditions,Clouds,dailyrainin,SolarRadiationWatts/m^2,SoftwareType,DateUTC
2013-06-13 00:04:00,58.3,56.0,29.84,SSW,202,0.0,0.0,90,0.00,,,0.00,0,weatherlink.com 1.10,2013-06-13 04:04:00,
2013-06-13 00:19:00,57.8,55.0,29.84,SSW,202,0.0,0.0,90,0.00,,,0.00,0,weatherlink.com 1.10,2013-06-13 04:19:00,
2013-06-13 00:34:00,57.4,55.0,29.84,SSW,202,0.0,0.0,90,0.00,,,0.00,0,weatherlink.com 1.10,2013-06-13 04:34:00,
2013-06-13 00:49:00,57.1,54.0,29.84,SSW,202,0.0,0.0,90,0.00,,,0.00,0,weatherlink.com 1.10,2013-06-13 04:49:00,
2013-06-13 01:04:00,56.7,54.0,29.84,SSW,202,0.0,0.0,90,0.00,,,0.00,0,weatherlink.com 1.10,2013-06-13 05:04:00,
2013-06-13 01:19:00,56.4,54.0,29.84,SSW,202,0.0,0.0,90,0.00,,,0.00,0,weatherlink.com 1.10,2013-06-13 05:19:00,
2013-06-13 01:34:00,56.0,53.0,29.84,SSW,202,0.0,0.0,90,0.00,,,0.00,0,weatherlink.com 1.10,2013-06-13 05:34:00,
2013-06-13 01:49:00,55.7,53.0,29.83,SSW,202,0.0,0.0,91,0.00,,,0.00,0,weatherlink.com 1.10,2013-06-13 05:49:00,
2013-06-13 02:04:00,55.3,53.0,29.82,SSW,202,0.0,0.0,90,0.00,,,0.00,0,weatherlink.com 1.10,2013-06-13 06:04:00,
2013-06-13 02:19:00,55.1,53.0,29.82,SSW,202,0.0,0.0,91,0.00,,,0.00,0,weatherlink.com 1.10,2013-06-13 06:19:00,
2013-06-13 02:34:00,54.7,53.0,29.82,SSW,202,0.0,0.0,92,0.00,,,0.00,0,weatherlink.com 1.10,2013-06-13 06:34:00,
2013-06-13 02:49:00,54.4,52.0,29.82,SSW,202,0.0,0.0,91,0.00,,,0.00,0,weatherlink.com 1.10,2013-06-13 06:49:00,
2013-06-13 03:05:00,54.3,52.0,29.81,SSW,202,0.0,0.0,92,0.00,,,0.00,0,weatherlink.com 1.10,2013-06-13 07:05:00,
2013-06-13 03:20:00,54.2,52.0,29.82,SSW,202,0.0,0.0,92,0.00,,,0.00,0,weatherlink.com 1.10,2013-06-13 07:20:00,
2013-06-13 03:35:00,54.0,52.0,29.81,SSW,202,0.0,0.0,92,0.00,,,0.00,0,weatherlink.com 1.10,2013-06-13 07:35:00,
2013-06-13 03:50:00,53.8,52.0,29.81,SSW,202,0.0,0.0,92,0.00,,,0.00,0,weatherlink.com 1.10,2013-06-13 07:50:00,
2013-06-13 04:05:00,53.6,51.0,29.82,SSW,202,0.0,0.0,92,0.00,,,0.00,0,weatherlink.com 1.10,2013-06-13 08:05:00,
2013-06-13 04:20:00,53.7,52.0,29.82,SSW,202,0.0,0.0,93,0.00,,,0.00,0,weatherlink.com 1.10,2013-06-13 08:20:00,
2013-06-13 04:35:00,53.7,52.0,29.80,SSW,202,0.0,0.0,93,0.00,,,0.00,0,weatherlink.com 1.10,2013-06-13 08:35:00,
2013-06-13 04:50:00,53.7,52.0,29.80,SSW,202,0.0,0.0,93,0.00,,,0.00,0,weatherlink.com 1.10,2013-06-13 08:50:00,
2013-06-13 05:05:00,53.7,52.0,29.80,SSW,202,0.0,0.0,93,0.00,,,0.00,0,weatherlink.com 1.10,2013-06-13 09:05:00,
2013-06-13 05:19:00,53.8,52.0,29.80,SSW,202,0.0,0.0,94,0.00,,,0.00,0,weatherlink.com 1.10,2013-06-13 09:19:00,
2013-06-13 05:35:00,53.9,52.0,29.81,SSW,202,0.0,0.0,94,0.00,,,0.00,0,weatherlink.com 1.10,2013-06-13 09:35:00,
2013-06-13 05:50:00,54.2,53.0,29.82,SSW,202,0.0,0.0,94,0.00,,,0.00,0,weatherlink.com 1.10,2013-06-13 09:50:00,
2013-06-13 06:05:00,54.5,53.0,29.82,SSW,202,0.0,0.0,94,0.00,,,0.00,0,weatherlink.com 1.10,2013-06-13 10:05:00,
2013-06-13 06:20:00,55.0,54.0,29.81,SSW,202,0.0,0.0,95,0.00,,,0.00,5,weatherlink.com 1.10,2013-06-13 10:20:00,
2013-06-13 06:35:00,55.1,54.0,29.81,SSW,202,0.0,0.0,94,0.00,,,0.00,19,weatherlink.com 1.10,2013-06-13 10:35:00,
2013-06-13 06:50:00,55.3,54.0,29.81,SSW,202,0.0,0.0,95,0.01,,,0.01,11,weatherlink.com 1.10,2013-06-13 10:50:00,
2013-06-13 07:19:00,55.5,54.0,29.79,SSW,202,0.0,0.0,95,0.01,,,0.01,12,weatherlink.com 1.10,2013-06-13 11:19:00,
2013-06-13 07:35:00,55.7,54.0,29.78,SSW,202,0.0,0.0,95,0.01,,,0.01,12,weatherlink.com 1.10,2013-06-13 11:35:00,
2013-06-13 07:50:00,55.8,54.0,29.77,SSW,202,0.0,0.0,95,0.00,,,0.01,16,weatherlink.com 1.10,2013-06-13 11:50:00,
2013-06-13 08:05:00,56.0,55.0,29.77,SSW,202,0.0,0.0,95,0.01,,,0.02,16,weatherlink.com 1.10,2013-06-13 12:05:00,
2013-06-13 08:19:00,56.1,55.0,29.77,SSW,202,0.0,0.0,95,0.03,,,0.04,19,weatherlink.com 1.10,2013-06-13 12:19:00,
2013-06-13 08:35:00,56.4,55.0,29.77,SSW,202,0.0,0.0,95,0.07,,,0.08,16,weatherlink.com 1.10,2013-06-13 12:35:00,
2013-06-13 08:50:00,56.5,55.0,29.77,SSW,202,0.0,0.0,95,0.09,,,0.10,18,weatherlink.com 1.10,2013-06-13 12:50:00,
2013-06-13 09:05:00,56.5,55.0,29.78,WSW,248,0.0,2.0,95,0.14,,,0.16,30,weatherlink.com 1.10,2013-06-13 13:05:00,
2013-06-13 09:20:00,56.4,55.0,29.77,SW,217,0.0,1.0,95,0.16,,,0.20,32,weatherlink.com 1.10,2013-06-13 13:20:00,
2013-06-13 09:35:00,56.5,55.0,29.77,SW,217,0.0,1.0,95,0.18,,,0.26,32,weatherlink.com 1.10,2013-06-13 13:35:00,
2013-06-13 09:50:00,56.8,56.0,29.76,SW,217,0.0,0.0,96,0.20,,,0.30,60,weatherlink.com 1.10,2013-06-13 13:50:00,
2013-06-13 10:05:00,57.0,56.0,29.76,SW,234,0.0,2.0,96,0.17,,,0.33,47,weatherlink.com 1.10,2013-06-13 14:05:00,
2013-06-13 10:20:00,57.0,56.0,29.75,SW,234,0.0,1.0,96,0.16,,,0.36,39,weatherlink.com 1.10,2013-06-13 14:20:00,
2013-06-13 10:35:00,56.9,56.0,29.76,WNW,295,0.0,2.0,96,0.14,,,0.40,30,weatherlink.com 1.10,2013-06-13 14:35:00,
2013-06-13 10:50:00,57.0,56.0,29.77,WNW,295,0.0,2.0,96,0.16,,,0.46,25,weatherlink.com 1.10,2013-06-13 14:50:00,
2013-06-13 11:05:00,57.2,56.0,29.75,WNW,295,0.0,1.0,96,0.18,,,0.51,35,weatherlink.com 1.10,2013-06-13 15:05:00,
2013-06-13 11:20:00,57.4,56.0,29.74,WNW,295,0.0,1.0,96,0.22,,,0.58,28,weatherlink.com 1.10,2013-06-13 15:20:00,
2013-06-13 11:34:00,57.6,57.0,29.73,WNW,295,0.0,0.0,96,0.26,,,0.66,37,weatherlink.com 1.10,2013-06-13 15:34:00,
2013-06-13 11:50:00,57.6,57.0,29.72,WNW,295,0.0,0.0,96,0.24,,,0.70,42,weatherlink.com 1.10,2013-06-13 15:50:00,
2013-06-13 12:06:00,57.5,56.0,29.71,WNW,295,0.0,0.0,96,0.24,,,0.75,44,weatherlink.com 1.10,2013-06-13 16:06:00,
2013-06-13 12:21:00,57.3,56.0,29.71,WNW,295,0.0,1.0,96,0.21,,,0.80,53,weatherlink.com 1.10,2013-06-13 16:21:00,
2013-06-13 12:36:00,57.2,56.0,29.71,WNW,295,0.0,0.0,96,0.21,,,0.88,30,weatherlink.com 1.10,2013-06-13 16:36:00,
2013-06-13 12:51:00,57.1,56.0,29.71,WNW,295,0.0,0.0,96,0.22,,,0.93,30,weatherlink.com 1.10,2013-06-13 16:51:00,
2013-06-13 13:06:00,57.1,56.0,29.70,WNW,295,0.0,0.0,96,0.21,,,0.97,21,weatherlink.com 1.10,2013-06-13 17:06:00,
2013-06-13 13:21:00,57.1,56.0,29.68,WNW,295,0.0,0.0,96,0.19,,,1.00,39,weatherlink.com 1.10,2013-06-13 17:21:00,
2013-06-13 13:36:00,57.3,57.0,29.68,WNW,284,0.0,1.0,97,0.14,,,1.02,47,weatherlink.com 1.10,2013-06-13 17:36:00,
2013-06-13 13:51:00,57.4,57.0,29.66,WNW,284,0.0,0.0,97,0.10,,,1.03,28,weatherlink.com 1.10,2013-06-13 17:51:00,
2013-06-13 14:06:00,57.4,56.0,29.67,WNW,284,0.0,0.0,96,0.06,,,1.03,12,weatherlink.com 1.10,2013-06-13 18:06:00,
2013-06-13 14:21:00,57.3,57.0,29.67,WNW,284,0.0,0.0,97,0.03,,,1.03,18,weatherlink.com 1.10,2013-06-13 18:21:00,
2013-06-13 14:36:00,57.3,57.0,29.66,WNW,284,0.0,1.0,97,0.01,,,1.03,16,weatherlink.com 1.10,2013-06-13 18:36:00,
2013-06-13 14:51:00,57.3,57.0,29.67,WNW,284,0.0,0.0,97,0.02,,,1.05,25,weatherlink.com 1.10,2013-06-13 18:51:00,
2013-06-13 15:06:00,57.4,57.0,29.67,WNW,284,0.0,0.0,97,0.04,,,1.07,19,weatherlink.com 1.10,2013-06-13 19:06:00,
2013-06-13 15:21:00,57.2,56.0,29.67,WNW,284,0.0,1.0,97,0.07,,,1.10,23,weatherlink.com 1.10,2013-06-13 19:21:00,
2013-06-13 15:36:00,57.1,56.0,29.68,WNW,284,0.0,1.0,96,0.09,,,1.12,21,weatherlink.com 1.10,2013-06-13 19:36:00,
2013-06-13 15:51:00,57.1,56.0,29.68,WNW,284,0.0,0.0,97,0.10,,,1.15,42,weatherlink.com 1.10,2013-06-13 19:51:00,
2013-06-13 16:06:00,57.1,56.0,29.68,WNW,284,0.0,0.0,97,0.13,,,1.21,39,weatherlink.com 1.10,2013-06-13 20:06:00,
2013-06-13 16:21:00,57.1,56.0,29.68,WNW,284,0.0,0.0,97,0.16,,,1.26,56,weatherlink.com 1.10,2013-06-13 20:21:00,
2013-06-13 16:36:00,57.1,56.0,29.68,WNW,284,0.0,0.0,97,0.16,,,1.28,33,weatherlink.com 1.10,2013-06-13 20:36:00,
2013-06-13 16:51:00,57.0,56.0,29.67,WNW,284,0.0,0.0,97,0.14,,,1.29,33,weatherlink.com 1.10,2013-06-13 20:51:00,
2013-06-13 17:06:00,56.9,56.0,29.67,WNW,284,0.0,0.0,97,0.09,,,1.30,46,weatherlink.com 1.10,2013-06-13 21:06:00,
2013-06-13 17:21:00,56.9,56.0,29.67,WNW,284,0.0,1.0,97,0.06,,,1.32,53,weatherlink.com 1.10,2013-06-13 21:21:00,
2013-06-13 17:36:00,56.9,56.0,29.66,WNW,284,0.0,1.0,97,0.05,,,1.33,39,weatherlink.com 1.10,2013-06-13 21:36:00,
2013-06-13 17:51:00,56.9,56.0,29.66,WNW,284,0.0,0.0,97,0.06,,,1.35,44,weatherlink.com 1.10,2013-06-13 21:51:00,
2013-06-13 18:06:00,56.8,56.0,29.66,WNW,284,0.0,0.0,97,0.06,,,1.36,33,weatherlink.com 1.10,2013-06-13 22:06:00,
2013-06-13 18:21:00,56.7,56.0,29.66,WNW,284,0.0,1.0,97,0.04,,,1.36,26,weatherlink.com 1.10,2013-06-13 22:21:00,
2013-06-13 18:36:00,56.5,56.0,29.66,WNW,284,0.0,1.0,97,0.03,,,1.36,21,weatherlink.com 1.10,2013-06-13 22:36:00,
2013-06-13 18:51:00,56.5,56.0,29.66,WNW,284,0.0,1.0,97,0.01,,,1.36,14,weatherlink.com 1.10,2013-06-13 22:51:00,
2013-06-13 19:06:00,56.3,56.0,29.66,WNW,284,0.0,1.0,97,0.00,,,1.36,11,weatherlink.com 1.10,2013-06-13 23:06:00,
2013-06-13 19:21:00,56.2,55.0,29.66,WNW,284,0.0,1.0,97,0.01,,,1.37,5,weatherlink.com 1.10,2013-06-13 23:21:00,
2013-06-13 19:36:00,56.1,55.0,29.66,WNW,284,0.0,1.0,97,0.01,,,1.37,7,weatherlink.com 1.10,2013-06-13 23:36:00,
2013-06-13 19:51:00,56.0,55.0,29.66,WNW,284,0.0,1.0,97,0.01,,,1.37,5,weatherlink.com 1.10,2013-06-13 23:51:00,
2013-06-13 20:06:00,55.8,55.0,29.67,WNW,284,0.0,1.0,97,0.01,,,1.37,0,weatherlink.com 1.10,2013-06-14 00:06:00,
2013-06-13 20:21:00,55.7,55.0,29.67,WNW,284,0.0,1.0,97,0.01,,,1.38,0,weatherlink.com 1.10,2013-06-14 00:21:00,
2013-06-13 20:36:00,55.5,55.0,29.67,WNW,284,0.0,1.0,97,0.02,,,1.39,0,weatherlink.com 1.10,2013-06-14 00:36:00,
2013-06-13 20:51:00,55.4,55.0,29.67,WNW,284,0.0,1.0,97,0.03,,,1.40,0,weatherlink.com 1.10,2013-06-14 00:51:00,
2013-06-13 21:06:00,55.3,55.0,29.67,WNW,284,0.0,1.0,97,0.03,,,1.40,0,weatherlink.com 1.10,2013-06-14 01:06:00,
2013-06-13 21:21:00,55.3,55.0,29.67,WNW,284,0.0,0.0,97,0.02,,,1.40,0,weatherlink.com 1.10,2013-06-14 01:21:00,
2013-06-13 21:36:00,55.3,55.0,29.68,WNW,284,0.0,2.0,97,0.01,,,1.40,0,weatherlink.com 1.10,2013-06-14 01:36:00,
2013-06-13 21:51:00,55.2,54.0,29.68,WNW,284,0.0,1.0,97,0.02,,,1.42,0,weatherlink.com 1.10,2013-06-14 01:51:00,
2013-06-13 22:06:00,55.1,54.0,29.68,WNW,284,0.0,1.0,97,0.02,,,1.42,0,weatherlink.com 1.10,2013-06-14 02:06:00,
2013-06-13 22:21:00,54.9,54.0,29.68,WNW,284,0.0,0.0,97,0.03,,,1.43,0,weatherlink.com 1.10,2013-06-14 02:21:00,
2013-06-13 22:36:00,54.6,54.0,29.68,WNW,284,0.0,1.0,96,0.04,,,1.44,0,weatherlink.com 1.10,2013-06-14 02:36:00,
2013-06-13 22:51:00,54.4,53.0,29.68,WNW,284,0.0,1.0,96,0.03,,,1.45,0,weatherlink.com 1.10,2013-06-14 02:51:00,
2013-06-13 23:06:00,54.2,53.0,29.67,SSE,150,1.0,2.0,97,0.04,,,1.46,0,weatherlink.com 1.10,2013-06-14 03:06:00,
2013-06-13 23:20:00,53.9,53.0,29.67,ENE,61,1.0,2.0,96,0.05,,,1.48,0,weatherlink.com 1.10,2013-06-14 03:20:00,
2013-06-13 23:36:00,53.5,52.0,29.68,NNW,346,0.0,3.0,96,0.06,,,1.50,0,weatherlink.com 1.10,2013-06-14 03:36:00,
2013-06-13 23:51:00,53.2,52.0,29.68,SSE,157,1.0,2.0,96,0.06,,,1.51,0,weatherlink.com 1.10,2013-06-14 03:51:00,